Location: Unspecified
(40.9447°N, 78.9903°W)
Time: 00:55:28
(UTC-04:00)

Hubble Space Telescope - Visible Passes

Search period start: 20 March 2019 00:00
Search period end: 30 March 2019 00:00
Orbit: 537 x 540 km, 28.5° (Epoch: 18 March)

Date Brightness Start Highest point End Pass type
(mag) Time Alt. Az. Time Alt. Az. Time Alt. Az.
25 Mar 3.0 20:52:33 10° S 20:53:42 11° SSE 20:53:49 11° SSE visible
26 Mar 2.9 20:41:24 10° SSW 20:43:05 12° S 20:44:06 11° SSE visible
27 Mar 3.0 20:30:29 10° SSW 20:32:28 13° S 20:34:20 10° SE visible
28 Mar 2.9 20:19:41 10° SSW 20:21:50 14° S 20:24:00 10° SE visible
29 Mar 3.0 20:08:59 10° SSW 20:11:14 14° S 20:13:29 10° SE visible
